Boston, MA

7:39 AM EDT on March 27, 2017 (GMT -0400)
Logan International

Weather History for KBOS - June, 2014

Change the Weather History Date:

Saturday, June 7, 2014

  Actual Average Record
Temperature  
Mean Temperature 71 °F 65 °F  
Max Temperature 80 °F 73 °F 97 °F (1999)
Min Temperature 61 °F 57 °F 45 °F (1932)
Degree Days  
Heating Degree Days 0 3  
Month to date heating degree days 19 24  
Since 1 June heating degree days 19 24  
Since 1 July heating degree days 5848 5650  
Cooling Degree Days 6 3  
Month to date cooling degree days 13 17  
Year to date cooling degree days 35 47  
Since 1 June cooling degree days 13 17  
Growing Degree Days 20 (Base 50)    
Moisture  
Dew Point 55 °F    
Average Humidity 58    
Maximum Humidity 73    
Minimum Humidity 42    
Precipitation  
Precipitation 0.00 in 0.15 in 3.07 in (2013)
Month to date precipitation 0.92 1.01  
Year to date precipitation 18.87 19.17  
Sea Level Pressure  
Sea Level Pressure 29.90 in    
Wind  
Wind Speed 8 mph (WSW)    
Max Wind Speed 14 mph    
Max Gust Speed 18 mph    
Visibility 10 miles    
Events      
T = Trace of Precipitation, MM = Missing Value Source: NWS Daily Summary

Daily Weather History Graph

Daily Weather History Graph

Search for Another Location

Airport or City:

Trip Planner

Search our weather history database for the weather conditions in past years. The results will help you decide how hot, cold, wet, or windy it might be!

Date:

Astronomy

Jun. 07, 2014 Rise Set
Actual Time 5:07 AM EDT 8:18 PM EDT
Civil Twilight 4:33 AM EDT 8:52 PM EDT
Nautical Twilight 3:49 AM EDT 9:37 PM EDT
Astronomical Twilight 2:56 AM EDT 10:30 PM EDT
Moon 2:26 PM EDT (6/7) 1:34 AM EDT (6/7)
Length of Visible Light 16h 19m
Length of Day
15h 10m
Waxing Gibbous, 67% of the Moon is Illuminated
Jun 7
Waxing Gibbous
Jun 13
Full
Jun 19
Last Quarter
Jun 27
New
Jul 5
First Quarter

Hourly Weather History & Observations

Time (EDT) Temp. Dew Point Humidity Pressure Visibility Wind Dir Wind Speed Gust Speed Precip Events Conditions
12:54 AM 64.0 °F 52.0 °F 65% 29.88 in 10.0 mi West 8.1 mph - N/A   Partly Cloudy
1:54 AM 63.0 °F 52.0 °F 67% 29.88 in 10.0 mi West 10.4 mph - N/A   Partly Cloudy
2:54 AM 61.0 °F 52.0 °F 72% 29.88 in 10.0 mi WNW 12.7 mph - N/A   Partly Cloudy
3:54 AM 61.0 °F 52.0 °F 72% 29.89 in 10.0 mi WNW 10.4 mph - N/A   Clear
4:54 AM 61.0 °F 51.1 °F 70% 29.89 in 10.0 mi WNW 9.2 mph - N/A   Partly Cloudy
5:54 AM 61.0 °F 52.0 °F 72% 29.90 in 10.0 mi WNW 10.4 mph - N/A   Partly Cloudy
6:54 AM 64.9 °F 52.0 °F 63% 29.91 in 10.0 mi NW 12.7 mph - N/A   Partly Cloudy
7:54 AM 69.1 °F 53.1 °F 57% 29.92 in 10.0 mi NNW 13.8 mph - N/A   Partly Cloudy
8:54 AM 71.1 °F 54.0 °F 55% 29.93 in 10.0 mi NW 8.1 mph - N/A   Partly Cloudy
9:54 AM 73.9 °F 55.0 °F 52% 29.93 in 10.0 mi WNW 9.2 mph - N/A   Scattered Clouds
10:54 AM 77.0 °F 55.0 °F 47% 29.93 in 10.0 mi Variable 3.5 mph - N/A   Scattered Clouds
11:54 AM 79.0 °F 54.0 °F 42% 29.92 in 10.0 mi Variable 3.5 mph - N/A   Scattered Clouds
12:54 PM 77.0 °F 55.9 °F 48% 29.91 in 10.0 mi SE 10.4 mph - N/A   Scattered Clouds
1:54 PM 78.1 °F 55.9 °F 46% 29.90 in 10.0 mi SE 10.4 mph - N/A   Scattered Clouds
2:54 PM 75.9 °F 55.0 °F 48% 29.90 in 10.0 mi ESE 9.2 mph - N/A   Scattered Clouds
3:54 PM 79.0 °F 55.9 °F 45% 29.88 in 10.0 mi SE 9.2 mph - N/A   Scattered Clouds
4:54 PM 78.1 °F 55.9 °F 46% 29.88 in 10.0 mi ESE 9.2 mph - N/A   Scattered Clouds
5:54 PM 75.0 °F 55.0 °F 50% 29.87 in 10.0 mi Variable 6.9 mph - N/A   Scattered Clouds
6:54 PM 75.9 °F 55.9 °F 50% 29.86 in 10.0 mi SE 4.6 mph - N/A   Partly Cloudy
7:54 PM 71.1 °F 55.9 °F 59% 29.88 in 10.0 mi SE 5.8 mph - N/A   Partly Cloudy
8:54 PM 73.0 °F 59.0 °F 61% 29.88 in 10.0 mi SSE 8.1 mph - N/A   Partly Cloudy
9:54 PM 69.1 °F 60.1 °F 73% 29.90 in 10.0 mi South 5.8 mph - N/A   Partly Cloudy
10:54 PM 70.0 °F 57.0 °F 63% 29.91 in 10.0 mi SSW 4.6 mph - N/A   Clear
11:54 PM 73.0 °F 55.0 °F 53% 29.92 in 10.0 mi WNW 5.8 mph - N/A   Clear